Wind_Speed
14 15 16 17 17 17 16 15 16 16 16 17 18 19 18 18 18 18 17 18 17 17 17 17 17 17 18 18 19 19 20 21 21 21 21 22 23 23
17 18 19 19 19 19 18 18 18 17 17 17 18 19 20 20 20 20 19 19 19 18 18 18 19 19 19 20 20 21 21 22 23 23 22 23 23 24
19 20 20 20 20 20 20 20 19 18 18 18 18 19 21 21 22 21 21 21 21 20 21 22 22 22 22 22 23 23 23 24 24 24 24 24 24 24
22 22 22 22 22 22 21 21 21 20 19 19 20 20 21 22 22 23 23 23 23 24 24 24 24 25 25 25 25 25 25 25 26 26 26 26 26 26
24 24 23 23 23 23 22 22 22 22 21 22 22 21 22 22 23 24 24 24 25 25 25 26 26 26 27 27 26 27 27 27 28 28 27 27 27 27
26 26 25 25 24 24 24 24 24 24 23 23 24 24 24 24 24 24 25 25 26 26 25 26 27 27 28 27 28 28 29 29 29 29 29 28 28 28
28 28 28 27 26 25 25 25 25 25 25 25 25 25 25 25 25 25 26 26 26 26 27 28 28 29 29 29 29 29 29 29 29 29 29 29 29 28
29 29 28 28 27 27 26 26 26 26 26 27 27 27 27 27 27 27 27 27 27 28 28 28 29 29 29 30 31 31 30 30 30 30 30 29 28 28
29 29 29 28 28 29 29 28 28 29 29 29 29 29 29 29 29 29 29 29 29 29 30 30 30 30 31 31 31 30 30 31 31 30 29 29 28 28
29 29 29 28 29 29 29 29 29 29 29 30 31 31 30 31 31 31 31 30 31 31 31 31 31 31 31 31 31 31 31 31 30 30 29 29 29 28
30 30 30 30 31 31 30 30 30 30 30 31 31 32 32 32 32 32 32 32 32 32 32 32 32 32 32 32 31 31 31 30 30 30 30 30 29 30
32 32 31 32 32 32 31 31 31 31 32 32 32 32 32 33 32 32 32 32 32 33 33 33 32 32 31 31 31 31 30 30 30 30 30 30 30 30
34 34 33 33 33 32 32 32 32 32 33 33 33 32 32 32 32 32 32 33 33 33 33 33 32 31 31 30 31 31 30 30 30 30 30 30 30 31
35 35 34 34 34 33 33 33 33 33 34 34 34 33 33 33 33 33 33 33 33 33 32 31 31 31 31 31 31 30 30 30 30 30 31 31 31 31
36 36 36 35 35 35 34 34 34 35 34 34 34 34 33 33 33 33 33 33 33 32 31 31 31 31 31 31 31 30 30 30 30 30 31 31 31 30
36 37 37 36 36 35 35 35 35 35 34 33 33 34 33 33 33 33 33 33 33 33 32 32 32 32 31 31 31 30 29 29 30 30 30 30 29 28
37 37 37 37 36 36 36 36 35 34 34 33 33 33 32 32 33 33 33 33 33 32 31 32 32 33 32 31 30 30 29 29 29 30 29 28 28 27
37 36 36 36 36 36 36 35 34 34 34 33 33 33 33 33 33 34 33 33 32 32 32 32 32 32 32 31 30 29 28 27 28 28 28 27 26 26
36 36 36 35 34 34 33 34 33 33 33 32 33 33 34 34 34 33 33 33 32 32 32 31 31 31 31 31 30 29 28 27 27 27 26 26 25 25
34 34 33 33 33 33 32 31 32 32 31 30 31 32 32 32 32 31 31 31 31 32 32 31 31 30 30 30 29 29 29 28 27 26 25 25 24 24
33 32 32 32 33 33 32 31 31 30 29 29 30 31 31 31 30 30 31 31 31 30 30 31 30 30 29 28 27 27 27 27 26 26 25 25 24 23
32 32 32 32 32 32 30 30 31 31 30 30 30 30 30 30 31 30 30 30 30 29 29 29 29 28 28 28 27 26 26 26 25 25 25 25 24 24
33 32 32 31 31 31 31 31 31 31 30 30 29 29 29 29 29 30 30 30 30 29 29 29 29 28 28 27 27 26 26 25 25 24 24 24 24 23
Wind_Direction
288 289 290 291 292 293 290 288 287 284 283 283 281 278 278 278 277 278 278 279 279 277 280 282 284 288 290 289 288 287 287 289 290 291 293 294 294 293
287 288 288 287 288 289 289 287 285 284 280 279 281 279 278 278 279 278 277 277 279 276 280 282 282 284 288 289 290 290 289 289 290 291 291 293 292 292
284 287 287 287 287 287 286 285 283 282 282 279 280 280 277 277 279 277 278 277 278 275 281 282 283 285 287 288 288 289 288 287 288 290 290 291 291 292
284 285 285 286 285 285 285 283 282 282 281 281 281 281 281 279 280 278 278 276 277 276 278 281 282 284 286 287 287 288 288 287 287 289 289 289 289 290
282 284 286 286 284 283 283 282 280 280 280 280 281 281 283 282 281 280 279 279 277 277 277 279 281 283 284 286 287 288 289 288 287 286 286 286 288 288
279 280 281 283 282 282 282 280 278 278 280 280 280 281 282 283 282 281 281 281 279 277 277 278 279 283 285 286 287 288 289 289 287 286 286 286 287 287
278 279 279 280 280 279 278 278 277 277 278 279 280 281 282 282 282 282 282 282 279 278 279 280 281 284 285 287 288 288 288 288 287 286 286 287 287 287
277 277 277 276 276 277 278 277 277 277 277 278 279 279 280 281 282 282 282 281 279 278 279 282 283 283 284 286 288 288 287 287 286 287 287 287 286 285
277 275 275 276 276 277 278 278 279 278 277 278 278 279 279 279 280 281 281 280 279 278 279 281 282 282 284 286 287 288 288 288 288 287 287 286 285 285
277 277 275 274 276 277 277 277 278 278 278 279 278 278 278 279 280 280 280 279 280 280 281 281 281 281 282 283 284 286 287 287 287 287 286 286 286 287
276 276 274 274 274 274 275 276 277 278 278 279 279 278 277 277 278 279 279 278 277 278 280 280 280 280 281 283 284 286 286 286 286 286 287 286 286 286
275 276 276 276 275 274 275 276 277 278 280 279 279 278 277 277 278 279 278 278 277 278 278 279 280 281 281 283 284 284 283 284 285 286 287 287 286 286
275 275 275 275 274 275 276 276 277 278 279 279 278 276 276 276 277 278 278 278 277 279 279 279 279 280 281 282 282 282 282 283 285 285 285 286 286 286
273 273 274 274 273 272 273 275 276 278 279 279 277 276 275 276 277 278 277 278 278 279 279 279 280 281 283 282 282 282 283 283 283 284 284 286 286 285
272 272 272 272 271 271 272 274 276 277 278 278 277 275 274 275 276 276 276 277 278 278 277 279 281 282 283 283 283 282 283 284 284 284 285 286 286 285
271 272 271 271 271 270 270 271 274 275 276 277 278 276 275 275 276 276 276 277 277 276 276 279 280 281 283 283 283 283 283 284 284 284 285 285 285 283
271 271 271 271 270 270 270 271 273 274 275 276 276 276 276 277 277 277 276 277 276 275 277 279 280 281 281 281 282 283 284 284 284 284 284 284 283 283
269 270 271 271 270 270 270 271 272 271 272 273 274 275 276 276 276 276 276 275 275 275 277 278 279 280 280 280 281 283 284 284 283 283 284 283 282 282
269 269 270 269 269 270 270 269 269 270 270 272 274 273 273 275 274 275 275 274 274 275 277 277 276 278 279 280 281 281 282 282 282 282 283 284 285 283
268 268 269 269 269 269 268 267 267 268 269 272 274 275 275 276 275 275 275 274 274 276 276 276 277 278 277 278 278 279 279 280 279 279 280 282 284 284
266 268 268 268 268 267 266 265 266 267 269 271 273 274 274 273 274 274 274 274 274 275 275 276 277 277 277 278 278 278 278 279 278 278 278 279 281 282
265 266 267 268 266 266 266 265 265 268 269 271 272 273 273 272 271 272 274 274 274 273 274 274 275 277 277 278 277 276 276 276 277 278 278 278 280 280
265 266 268 267 265 265 266 266 266 269 270 272 273 273 273 272 272 271 271 271 271 271 272 273 275 276 277 277 276 276 274 273 274 276 276 277 279 280
Height
5887 5887 5885 5884 5883 5882 5880 5879 5878 5877 5876 5874 5873 5872 5871 5870 5869 5868 5867 5866 5865 5864 5864 5862 5861 5860 5859 5857 5856 5854 5853 5851 5849 5847 5845 5843 5841 5839
5883 5882 5881 5879 5878 5877 5875 5874 5873 5872 5871 5869 5868 5867 5866 5865 5864 5863 5862 5861 5860 5859 5858 5857 5856 5855 5853 5852 5850 5849 5847 5845 5843 5841 5839 5837 5835 5833
5878 5877 5875 5874 5872 5871 5869 5868 5867 5866 5865 5864 5863 5861 5860 5859 5858 5857 5856 5855 5855 5853 5852 5852 5850 5849 5848 5846 5844 5843 5841 5839 5837 5835 5833 5831 5829 5827
5872 5871 5869 5867 5866 5865 5864 5862 5861 5860 5859 5858 5857 5856 5854 5853 5852 5851 5850 5849 5848 5847 5846 5845 5844 5843 5841 5839 5838 5836 5834 5832 5830 5828 5826 5824 5822 5820
5865 5864 5862 5861 5860 5858 5857 5856 5855 5854 5853 5852 5851 5849 5848 5847 5846 5845 5844 5842 5841 5840 5839 5838 5836 5835 5834 5832 5830 5828 5826 5824 5822 5820 5818 5816 5814 5812
5858 5857 5855 5854 5853 5851 5850 5848 5847 5846 5846 5845 5844 5843 5841 5840 5839 5838 5837 5835 5834 5833 5832 5830 5829 5827 5826 5824 5822 5820 5818 5816 5814 5812 5810 5808 5806 5804
5850 5849 5848 5847 5845 5844 5843 5841 5840 5839 5838 5837 5836 5835 5834 5833 5832 5830 5829 5828 5826 5825 5824 5823 5821 5820 5818 5816 5814 5812 5809 5807 5805 5803 5801 5800 5798 5796
5841 5840 5839 5838 5837 5836 5835 5834 5833 5832 5831 5830 5829 5828 5827 5825 5824 5823 5821 5820 5819 5818 5816 5815 5813 5812 5810 5808 5805 5803 5801 5799 5797 5794 5792 5790 5789 5787
5832 5831 5830 5829 5829 5828 5827 5825 5824 5823 5823 5822 5821 5819 5818 5817 5816 5814 5813 5812 5810 5809 5808 5807 5805 5803 5801 5799 5796 5794 5792 5790 5788 5786 5784 5782 5780 5778
5823 5822 5821 5821 5820 5819 5818 5817 5816 5815 5814 5813 5812 5811 5809 5808 5807 5805 5804 5803 5802 5800 5799 5798 5796 5794 5792 5790 5787 5785 5783 5781 5779 5777 5775 5773 5771 5769
5814 5813 5812 5812 5811 5810 5809 5808 5807 5806 5805 5804 5803 5801 5800 5798 5797 5796 5794 5793 5792 5791 5789 5788 5786 5784 5782 5780 5778 5776 5774 5772 5769 5768 5766 5764 5762 5760
5804 5803 5803 5802 5801 5800 5799 5798 5798 5797 5796 5794 5793 5791 5790 5789 5787 5786 5784 5783 5782 5781 5779 5778 5776 5774 5773 5771 5768 5766 5764 5762 5760 5758 5756 5754 5753 5751
5794 5793 5792 5791 5791 5790 5789 5788 5787 5787 5785 5784 5782 5781 5780 5779 5778 5776 5774 5773 5772 5771 5770 5768 5766 5764 5763 5762 5760 5757 5756 5754 5751 5749 5747 5745 5743 5741
5783 5782 5781 5780 5780 5779 5778 5778 5777 5776 5775 5773 5772 5771 5770 5769 5768 5766 5765 5763 5762 5761 5759 5758 5757 5755 5753 5752 5750 5749 5746 5744 5742 5740 5739 5736 5734 5732
5771 5771 5770 5769 5768 5768 5767 5767 5766 5765 5764 5763 5761 5761 5760 5759 5758 5756 5755 5753 5752 5751 5750 5748 5747 5746 5744 5742 5741 5739 5737 5735 5733 5731 5729 5727 5725 5723
5760 5759 5758 5758 5757 5757 5756 5755 5754 5754 5752 5752 5751 5750 5749 5748 5747 5746 5744 5743 5742 5741 5740 5739 5738 5736 5734 5733 5731 5729 5728 5726 5724 5721 5720 5718 5715 5713
5747 5747 5746 5746 5745 5745 5745 5744 5743 5743 5742 5741 5740 5739 5738 5737 5736 5735 5734 5732 5731 5731 5730 5728 5727 5726 5725 5723 5722 5720 5718 5716 5714 5712 5710 5709 5707 5705
5735 5735 5735 5734 5734 5734 5733 5733 5732 5731 5731 5730 5729 5729 5728 5726 5725 5724 5723 5722 5721 5720 5719 5719 5717 5716 5715 5713 5712 5711 5709 5707 5706 5704 5702 5701 5699 5698
5723 5723 5723 5723 5723 5722 5722 5722 5722 5721 5720 5719 5719 5718 5717 5716 5714 5713 5712 5712 5711 5710 5709 5708 5707 5706 5705 5704 5702 5701 5700 5698 5697 5696 5694 5693 5691 5690
5711 5711 5711 5711 5711 5711 5711 5711 5711 5710 5709 5709 5708 5707 5706 5705 5704 5703 5702 5702 5701 5700 5699 5698 5697 5696 5695 5694 5693 5692 5690 5689 5688 5687 5686 5685 5684 5682
5700 5700 5700 5700 5700 5700 5700 5700 5700 5700 5699 5698 5697 5697 5696 5695 5694 5693 5692 5691 5690 5689 5688 5688 5687 5686 5685 5684 5683 5682 5681 5680 5679 5678 5677 5677 5676 5675
5688 5689 5689 5689 5689 5689 5688 5689 5689 5689 5689 5688 5687 5686 5685 5684 5684 5683 5682 5681 5680 5679 5679 5678 5677 5676 5676 5675 5674 5673 5672 5671 5670 5669 5669 5669 5668 5668
5678 5678 5678 5678 5678 5678 5678 5678 5678 5678 5678 5677 5676 5675 5675 5674 5673 5672 5672 5671 5670 5670 5669 5668 5668 5667 5666 5666 5665 5664 5664 5663 5662 5661 5661 5660 5660 5660